owner,sensor,date,latitude,longitude,vertical_datum,sea_water_practical_salinity,qcFlag 
ENP,ioos.station.NOAA.NDBC:TCVF1:1,2016-10-01T00:00:00Z,25.2130,-80.5330,1.5,1.58,1111122 
ENP,ioos.station.NOAA.NDBC:TCVF1:1,2016-10-01T02:00:00Z,25.2130,-80.5330,1.5,1.54,1111122 
ENP,ioos.station.NOAA.NDBC:TCVF1:1,2016-10-01T03:00:00Z,25.2130,-80.5330,1.5,1.52,1111122 
ENP,ioos.station.NOAA.NDBC:TCVF1:1,2016-10-01T05:00:00Z,25.2130,-80.5330,1.5,14.8,1111122 
ENP,ioos.station.NOAA.NDBC:TCVF1:1,2016-10-01T06:00:00Z,25.2130,-80.5330,1.5,19.24,1111122 
ENP,ioos.station.NOAA.NDBC:TCVF1:1,2016-10-01T07:00:00Z,25.2130,-80.5330,1.5,3.51,1111122 
ENP,ioos.station.NOAA.NDBC:TCVF1:1,2016-10-01T08:00:00Z,25.2130,-80.5330,1.5,2.19,1111122 
ENP,ioos.station.NOAA.NDBC:TCVF1:1,2016-10-01T09:00:00Z,25.2130,-80.5330,1.5,1.84,1111122 
ENP,ioos.station.NOAA.NDBC:TCVF1:1,2016-10-01T10:00:00Z,25.2130,-80.5330,1.5,1.75,1111122 
ENP,ioos.station.NOAA.NDBC:TCVF1:1,2016-10-01T11:00:00Z,25.2130,-80.5330,1.5,1.62,1111122 
ENP,ioos.station.NOAA.NDBC:TCVF1:1,2016-10-01T13:00:00Z,25.2130,-80.5330,1.5,1.46,1111122 
ENP,ioos.station.NOAA.NDBC:TCVF1:1,2016-10-01T14:00:00Z,25.2130,-80.5330,1.5,1.41,1111122 
ENP,ioos.station.NOAA.NDBC:TCVF1:1,2016-10-01T15:00:00Z,25.2130,-80.5330,1.5,1.38,1111122 
ENP,ioos.station.NOAA.NDBC:TCVF1:1,2016-10-01T16:00:00Z,25.2130,-80.5330,1.5,1.38,1111122 
ENP,ioos.station.NOAA.NDBC:TCVF1:1,2016-10-01T17:00:00Z,25.2130,-80.5330,1.5,1.36,1111122 
ENP,ioos.station.NOAA.NDBC:TCVF1:1,2016-10-01T18:00:00Z,25.2130,-80.5330,1.5,1.35,1111122 
ENP,ioos.station.NOAA.NDBC:TCVF1:1,2016-10-01T19:00:00Z,25.2130,-80.5330,1.5,1.35,1111122 
ENP,ioos.station.NOAA.NDBC:TCVF1:1,2016-10-01T20:00:00Z,25.2130,-80.5330,1.5,1.34,1111122 
ENP,ioos.station.NOAA.NDBC:TCVF1:1,2016-10-01T21:00:00Z,25.2130,-80.5330,1.5,1.31,1111122 
ENP,ioos.station.NOAA.NDBC:TCVF1:1,2016-10-01T22:00:00Z,25.2130,-80.5330,1.5,1.3,1111122 
ENP,ioos.station.NOAA.NDBC:TCVF1:1,2016-10-01T23:00:00Z,25.2130,-80.5330,1.5,1.29,1111122 
ENP,ioos.station.NOAA.NDBC:TCVF1:1,2016-10-02T00:00:00Z,25.2130,-80.5330,1.5,1.28,1111122 
ENP,ioos.station.NOAA.NDBC:TCVF1:1,2016-10-02T03:00:00Z,25.2130,-80.5330,1.5,1.24,1111122 
ENP,ioos.station.NOAA.NDBC:TCVF1:1,2016-10-02T05:00:00Z,25.2130,-80.5330,1.5,1.22,1111122 
ENP,ioos.station.NOAA.NDBC:TCVF1:1,2016-10-02T06:00:00Z,25.2130,-80.5330,1.5,1.2,1111122 
ENP,ioos.station.NOAA.NDBC:TCVF1:1,2016-10-02T07:00:00Z,25.2130,-80.5330,1.5,1.2,1111122 
ENP,ioos.station.NOAA.NDBC:TCVF1:1,2016-10-02T08:00:00Z,25.2130,-80.5330,1.5,1.2,1111122 
ENP,ioos.station.NOAA.NDBC:TCVF1:1,2016-10-02T10:00:00Z,25.2130,-80.5330,1.5,1.18,1111122 
ENP,ioos.station.NOAA.NDBC:TCVF1:1,2016-10-02T11:00:00Z,25.2130,-80.5330,1.5,1.17,1111122 
ENP,ioos.station.NOAA.NDBC:TCVF1:1,2016-10-02T12:00:00Z,25.2130,-80.5330,1.5,1.14,1111122 
ENP,ioos.station.NOAA.NDBC:TCVF1:1,2016-10-02T13:00:00Z,25.2130,-80.5330,1.5,0.98,1111122 
ENP,ioos.station.NOAA.NDBC:TCVF1:1,2016-10-02T14:00:00Z,25.2130,-80.5330,1.5,1.1,1111122 
ENP,ioos.station.NOAA.NDBC:TCVF1:1,2016-10-02T15:00:00Z,25.2130,-80.5330,1.5,1.1,1111122 
ENP,ioos.station.NOAA.NDBC:TCVF1:1,2016-10-02T16:00:00Z,25.2130,-80.5330,1.5,1.11,1111122 
ENP,ioos.station.NOAA.NDBC:TCVF1:1,2016-10-02T17:00:00Z,25.2130,-80.5330,1.5,1.12,1111122 
ENP,ioos.station.NOAA.NDBC:TCVF1:1,2016-10-02T18:00:00Z,25.2130,-80.5330,1.5,1.12,1111122 
ENP,ioos.station.NOAA.NDBC:TCVF1:1,2016-10-02T19:00:00Z,25.2130,-80.5330,1.5,1.13,1111122 
ENP,ioos.station.NOAA.NDBC:TCVF1:1,2016-10-02T20:00:00Z,25.2130,-80.5330,1.5,1.13,1111122 
ENP,ioos.station.NOAA.NDBC:TCVF1:1,2016-10-02T21:00:00Z,25.2130,-80.5330,1.5,1.12,1111122 
ENP,ioos.station.NOAA.NDBC:TCVF1:1,2016-10-02T22:00:00Z,25.2130,-80.5330,1.5,1.13,1111122 
ENP,ioos.station.NOAA.NDBC:TCVF1:1,2016-10-02T23:00:00Z,25.2130,-80.5330,1.5,1.15,1111122 
ENP,ioos.station.NOAA.NDBC:TCVF1:1,2016-10-03T00:00:00Z,25.2130,-80.5330,1.5,1.16,1111122 
ENP,ioos.station.NOAA.NDBC:TCVF1:1,2016-10-03T02:00:00Z,25.2130,-80.5330,1.5,1.14,1111122 
ENP,ioos.station.NOAA.NDBC:TCVF1:1,2016-10-03T03:00:00Z,25.2130,-80.5330,1.5,1.14,1111122 
ENP,ioos.station.NOAA.NDBC:TCVF1:1,2016-10-03T04:00:00Z,25.2130,-80.5330,1.5,1.15,1111122 
ENP,ioos.station.NOAA.NDBC:TCVF1:1,2016-10-03T06:00:00Z,25.2130,-80.5330,1.5,1.14,1111122 
ENP,ioos.station.NOAA.NDBC:TCVF1:1,2016-10-03T07:00:00Z,25.2130,-80.5330,1.5,1.12,1111122 
ENP,ioos.station.NOAA.NDBC:TCVF1:1,2016-10-03T08:00:00Z,25.2130,-80.5330,1.5,1.1,1111122 
ENP,ioos.station.NOAA.NDBC:TCVF1:1,2016-10-03T10:00:00Z,25.2130,-80.5330,1.5,3.63,1111122 
ENP,ioos.station.NOAA.NDBC:TCVF1:1,2016-10-03T11:00:00Z,25.2130,-80.5330,1.5,4.7,1111122 
ENP,ioos.station.NOAA.NDBC:TCVF1:1,2016-10-03T12:00:00Z,25.2130,-80.5330,1.5,1.94,1111122 
ENP,ioos.station.NOAA.NDBC:TCVF1:1,2016-10-03T13:00:00Z,25.2130,-80.5330,1.5,2.6,1111122 
ENP,ioos.station.NOAA.NDBC:TCVF1:1,2016-10-03T14:00:00Z,25.2130,-80.5330,1.5,1.93,1111122 
ENP,ioos.station.NOAA.NDBC:TCVF1:1,2016-10-03T15:00:00Z,25.2130,-80.5330,1.5,1.53,1111122 
ENP,ioos.station.NOAA.NDBC:TCVF1:1,2016-10-03T16:00:00Z,25.2130,-80.5330,1.5,1.46,1111122 
ENP,ioos.station.NOAA.NDBC:TCVF1:1,2016-10-03T17:00:00Z,25.2130,-80.5330,1.5,1.48,1111122 
ENP,ioos.station.NOAA.NDBC:TCVF1:1,2016-10-03T18:00:00Z,25.2130,-80.5330,1.5,1.41,1111122 
ENP,ioos.station.NOAA.NDBC:TCVF1:1,2016-10-03T19:00:00Z,25.2130,-80.5330,1.5,1.42,1111122 
ENP,ioos.station.NOAA.NDBC:TCVF1:1,2016-10-03T20:00:00Z,25.2130,-80.5330,1.5,1.38,1111122 
ENP,ioos.station.NOAA.NDBC:TCVF1:1,2016-10-03T21:00:00Z,25.2130,-80.5330,1.5,1.4,1111122 
ENP,ioos.station.NOAA.NDBC:TCVF1:1,2016-10-03T22:00:00Z,25.2130,-80.5330,1.5,1.41,1111122 
ENP,ioos.station.NOAA.NDBC:TCVF1:1,2016-10-03T23:00:00Z,25.2130,-80.5330,1.5,1.43,1111122 
ENP,ioos.station.NOAA.NDBC:TCVF1:1,2016-10-04T00:00:00Z,25.2130,-80.5330,1.5,1.4,1111122 
ENP,ioos.station.NOAA.NDBC:TCVF1:1,2016-10-04T02:00:00Z,25.2130,-80.5330,1.5,1.42,1111122 
ENP,ioos.station.NOAA.NDBC:TCVF1:1,2016-10-04T03:00:00Z,25.2130,-80.5330,1.5,1.21,1111122 
ENP,ioos.station.NOAA.NDBC:TCVF1:1,2016-10-04T05:00:00Z,25.2130,-80.5330,1.5,1.88,1111122 
ENP,ioos.station.NOAA.NDBC:TCVF1:1,2016-10-04T06:00:00Z,25.2130,-80.5330,1.5,1.62,1111122 
ENP,ioos.station.NOAA.NDBC:TCVF1:1,2016-10-04T07:00:00Z,25.2130,-80.5330,1.5,1.63,1111122 
ENP,ioos.station.NOAA.NDBC:TCVF1:1,2016-10-04T08:00:00Z,25.2130,-80.5330,1.5,1.93,1111122 
ENP,ioos.station.NOAA.NDBC:TCVF1:1,2016-10-04T09:00:00Z,25.2130,-80.5330,1.5,3.23,1111122 
ENP,ioos.station.NOAA.NDBC:TCVF1:1,2016-10-04T10:00:00Z,25.2130,-80.5330,1.5,2.48,1111122 
ENP,ioos.station.NOAA.NDBC:TCVF1:1,2016-10-04T11:00:00Z,25.2130,-80.5330,1.5,2.35,1111122 
ENP,ioos.station.NOAA.NDBC:TCVF1:1,2016-10-04T12:00:00Z,25.2130,-80.5330,1.5,2.36,1111122 
ENP,ioos.station.NOAA.NDBC:TCVF1:1,2016-10-04T13:00:00Z,25.2130,-80.5330,1.5,2.3,1111122 
ENP,ioos.station.NOAA.NDBC:TCVF1:1,2016-10-04T14:00:00Z,25.2130,-80.5330,1.5,2.33,1111122 
ENP,ioos.station.NOAA.NDBC:TCVF1:1,2016-10-04T15:00:00Z,25.2130,-80.5330,1.5,2.43,1111122 
ENP,ioos.station.NOAA.NDBC:TCVF1:1,2016-10-04T16:00:00Z,25.2130,-80.5330,1.5,2.53,1111122 
ENP,ioos.station.NOAA.NDBC:TCVF1:1,2016-10-04T17:00:00Z,25.2130,-80.5330,1.5,2.55,1111122 
ENP,ioos.station.NOAA.NDBC:TCVF1:1,2016-10-04T18:00:00Z,25.2130,-80.5330,1.5,2.59,1111122 
ENP,ioos.station.NOAA.NDBC:TCVF1:1,2016-10-04T19:00:00Z,25.2130,-80.5330,1.5,2.68,1111122 
ENP,ioos.station.NOAA.NDBC:TCVF1:1,2016-10-04T20:00:00Z,25.2130,-80.5330,1.5,2.74,1111122 
ENP,ioos.station.NOAA.NDBC:TCVF1:1,2016-10-04T21:00:00Z,25.2130,-80.5330,1.5,10.48,1111122 
ENP,ioos.station.NOAA.NDBC:TCVF1:1,2016-10-04T22:00:00Z,25.2130,-80.5330,1.5,13.08,1111122 
ENP,ioos.station.NOAA.NDBC:TCVF1:1,2016-10-04T23:00:00Z,25.2130,-80.5330,1.5,3.65,1111122 
ENP,ioos.station.NOAA.NDBC:TCVF1:1,2016-10-05T00:00:00Z,25.2130,-80.5330,1.5,2.9,1111122 
ENP,ioos.station.NOAA.NDBC:TCVF1:1,2016-10-05T02:00:00Z,25.2130,-80.5330,1.5,2.0,1111122 
ENP,ioos.station.NOAA.NDBC:TCVF1:1,2016-10-05T03:00:00Z,25.2130,-80.5330,1.5,2.91,1111122 
ENP,ioos.station.NOAA.NDBC:TCVF1:1,2016-10-05T05:00:00Z,25.2130,-80.5330,1.5,4.77,1111122 
ENP,ioos.station.NOAA.NDBC:TCVF1:1,2016-10-05T06:00:00Z,25.2130,-80.5330,1.5,3.8,1111122 
ENP,ioos.station.NOAA.NDBC:TCVF1:1,2016-10-05T07:00:00Z,25.2130,-80.5330,1.5,17.21,1111122 
ENP,ioos.station.NOAA.NDBC:TCVF1:1,2016-10-05T08:00:00Z,25.2130,-80.5330,1.5,8.43,1111122 
ENP,ioos.station.NOAA.NDBC:TCVF1:1,2016-10-05T10:00:00Z,25.2130,-80.5330,1.5,22.48,1111122 
ENP,ioos.station.NOAA.NDBC:TCVF1:1,2016-10-05T11:00:00Z,25.2130,-80.5330,1.5,23.46,1111122 
ENP,ioos.station.NOAA.NDBC:TCVF1:1,2016-10-05T13:00:00Z,25.2130,-80.5330,1.5,13.15,1111122 
ENP,ioos.station.NOAA.NDBC:TCVF1:1,2016-10-05T14:00:00Z,25.2130,-80.5330,1.5,6.51,1111122 
ENP,ioos.station.NOAA.NDBC:TCVF1:1,2016-10-05T15:00:00Z,25.2130,-80.5330,1.5,5.49,1111122 
ENP,ioos.station.NOAA.NDBC:TCVF1:1,2016-10-05T16:00:00Z,25.2130,-80.5330,1.5,4.94,1111122 
ENP,ioos.station.NOAA.NDBC:TCVF1:1,2016-10-05T17:00:00Z,25.2130,-80.5330,1.5,4.48,1111122 
ENP,ioos.station.NOAA.NDBC:TCVF1:1,2016-10-05T18:00:00Z,25.2130,-80.5330,1.5,3.6,1111122 
ENP,ioos.station.NOAA.NDBC:TCVF1:1,2016-10-05T19:00:00Z,25.2130,-80.5330,1.5,3.29,1111122 
ENP,ioos.station.NOAA.NDBC:TCVF1:1,2016-10-05T20:00:00Z,25.2130,-80.5330,1.5,3.02,1111122 
ENP,ioos.station.NOAA.NDBC:TCVF1:1,2016-10-05T21:00:00Z,25.2130,-80.5330,1.5,2.8,1111122 
ENP,ioos.station.NOAA.NDBC:TCVF1:1,2016-10-05T22:00:00Z,25.2130,-80.5330,1.5,2.51,1111122 
ENP,ioos.station.NOAA.NDBC:TCVF1:1,2016-10-05T23:00:00Z,25.2130,-80.5330,1.5,1.98,1111122 
ENP,ioos.station.NOAA.NDBC:TCVF1:1,2016-10-06T00:00:00Z,25.2130,-80.5330,1.5,1.54,1111122 
ENP,ioos.station.NOAA.NDBC:TCVF1:1,2016-10-06T03:00:00Z,25.2130,-80.5330,1.5,1.2,1111122 
ENP,ioos.station.NOAA.NDBC:TCVF1:1,2016-10-06T04:00:00Z,25.2130,-80.5330,1.5,1.24,1111122 
ENP,ioos.station.NOAA.NDBC:TCVF1:1,2016-10-06T06:00:00Z,25.2130,-80.5330,1.5,1.16,1111122 
ENP,ioos.station.NOAA.NDBC:TCVF1:1,2016-10-06T07:00:00Z,25.2130,-80.5330,1.5,1.14,1111122 
ENP,ioos.station.NOAA.NDBC:TCVF1:1,2016-10-06T08:00:00Z,25.2130,-80.5330,1.5,1.13,1111122 
ENP,ioos.station.NOAA.NDBC:TCVF1:1,2016-10-06T10:00:00Z,25.2130,-80.5330,1.5,2.22,1111122 
ENP,ioos.station.NOAA.NDBC:TCVF1:1,2016-10-06T11:00:00Z,25.2130,-80.5330,1.5,2.06,1111122 
ENP,ioos.station.NOAA.NDBC:TCVF1:1,2016-10-06T12:00:00Z,25.2130,-80.5330,1.5,1.69,1111122 
ENP,ioos.station.NOAA.NDBC:TCVF1:1,2016-10-06T13:00:00Z,25.2130,-80.5330,1.5,1.69,1111122 
ENP,ioos.station.NOAA.NDBC:TCVF1:1,2016-10-06T14:00:00Z,25.2130,-80.5330,1.5,2.87,1111122 
ENP,ioos.station.NOAA.NDBC:TCVF1:1,2016-10-06T15:00:00Z,25.2130,-80.5330,1.5,2.2,1111122 
ENP,ioos.station.NOAA.NDBC:TCVF1:1,2016-10-06T16:00:00Z,25.2130,-80.5330,1.5,1.93,1111122 
ENP,ioos.station.NOAA.NDBC:TCVF1:1,2016-10-06T17:00:00Z,25.2130,-80.5330,1.5,1.65,1111122 
ENP,ioos.station.NOAA.NDBC:TCVF1:1,2016-10-06T18:00:00Z,25.2130,-80.5330,1.5,1.51,1111122 
ENP,ioos.station.NOAA.NDBC:TCVF1:1,2016-10-06T19:00:00Z,25.2130,-80.5330,1.5,1.45,1111122 
ENP,ioos.station.NOAA.NDBC:TCVF1:1,2016-10-06T20:00:00Z,25.2130,-80.5330,1.5,1.42,1111122 
ENP,ioos.station.NOAA.NDBC:TCVF1:1,2016-10-06T21:00:00Z,25.2130,-80.5330,1.5,1.31,1111122 
ENP,ioos.station.NOAA.NDBC:TCVF1:1,2016-10-06T22:00:00Z,25.2130,-80.5330,1.5,1.29,1111122 
ENP,ioos.station.NOAA.NDBC:TCVF1:1,2016-10-06T23:00:00Z,25.2130,-80.5330,1.5,1.61,1111122 
ENP,ioos.station.NOAA.NDBC:TCVF1:1,2016-10-07T00:00:00Z,25.2130,-80.5330,1.5,2.72,1111122 
ENP,ioos.station.NOAA.NDBC:TCVF1:1,2016-10-07T02:00:00Z,25.2130,-80.5330,1.5,18.29,1111122 
ENP,ioos.station.NOAA.NDBC:TCVF1:1,2016-10-07T03:00:00Z,25.2130,-80.5330,1.5,21.79,1111122 
ENP,ioos.station.NOAA.NDBC:TCVF1:1,2016-10-07T05:00:00Z,25.2130,-80.5330,1.5,23.39,1111122 
ENP,ioos.station.NOAA.NDBC:TCVF1:1,2016-10-07T06:00:00Z,25.2130,-80.5330,1.5,23.53,1111122 
ENP,ioos.station.NOAA.NDBC:TCVF1:1,2016-10-07T07:00:00Z,25.2130,-80.5330,1.5,23.6,1111122 
ENP,ioos.station.NOAA.NDBC:TCVF1:1,2016-10-07T08:00:00Z,25.2130,-80.5330,1.5,23.46,1111122 
ENP,ioos.station.NOAA.NDBC:TCVF1:1,2016-10-07T09:00:00Z,25.2130,-80.5330,1.5,22.62,1111122 
ENP,ioos.station.NOAA.NDBC:TCVF1:1,2016-10-07T10:00:00Z,25.2130,-80.5330,1.5,22.76,1111122 
ENP,ioos.station.NOAA.NDBC:TCVF1:1,2016-10-07T11:00:00Z,25.2130,-80.5330,1.5,23.04,1111122 
ENP,ioos.station.NOAA.NDBC:TCVF1:1,2016-10-07T12:00:00Z,25.2130,-80.5330,1.5,23.11,1111122 
ENP,ioos.station.NOAA.NDBC:TCVF1:1,2016-10-07T13:00:00Z,25.2130,-80.5330,1.5,23.25,1111122 
ENP,ioos.station.NOAA.NDBC:TCVF1:1,2016-10-07T14:00:00Z,25.2130,-80.5330,1.5,23.32,1111122 
ENP,ioos.station.NOAA.NDBC:TCVF1:1,2016-10-07T15:00:00Z,25.2130,-80.5330,1.5,23.11,1111122 
ENP,ioos.station.NOAA.NDBC:TCVF1:1,2016-10-07T17:00:00Z,25.2130,-80.5330,1.5,20.54,1111122 
ENP,ioos.station.NOAA.NDBC:TCVF1:1,2016-10-07T19:00:00Z,25.2130,-80.5330,1.5,21.16,1111122 
ENP,ioos.station.NOAA.NDBC:TCVF1:1,2016-10-07T20:00:00Z,25.2130,-80.5330,1.5,20.48,1111122 
ENP,ioos.station.NOAA.NDBC:TCVF1:1,2016-10-07T21:00:00Z,25.2130,-80.5330,1.5,20.34,1111122 
ENP,ioos.station.NOAA.NDBC:TCVF1:1,2016-10-07T22:00:00Z,25.2130,-80.5330,1.5,20.41,1111122 
ENP,ioos.station.NOAA.NDBC:TCVF1:1,2016-10-07T23:00:00Z,25.2130,-80.5330,1.5,20.48,1111122 
ENP,ioos.station.NOAA.NDBC:TCVF1:1,2016-10-08T00:00:00Z,25.2130,-80.5330,1.5,20.61,1111122 
ENP,ioos.station.NOAA.NDBC:TCVF1:1,2016-10-08T02:00:00Z,25.2130,-80.5330,1.5,20.82,1111122 
ENP,ioos.station.NOAA.NDBC:TCVF1:1,2016-10-08T03:00:00Z,25.2130,-80.5330,1.5,20.89,1111122 
ENP,ioos.station.NOAA.NDBC:TCVF1:1,2016-10-08T05:00:00Z,25.2130,-80.5330,1.5,21.03,1111122 
ENP,ioos.station.NOAA.NDBC:TCVF1:1,2016-10-08T06:00:00Z,25.2130,-80.5330,1.5,21.1,1111122 
ENP,ioos.station.NOAA.NDBC:TCVF1:1,2016-10-08T07:00:00Z,25.2130,-80.5330,1.5,21.16,1111122 
ENP,ioos.station.NOAA.NDBC:TCVF1:1,2016-10-08T08:00:00Z,25.2130,-80.5330,1.5,21.16,1111122 
ENP,ioos.station.NOAA.NDBC:TCVF1:1,2016-10-08T09:00:00Z,25.2130,-80.5330,1.5,21.16,1111122 
ENP,ioos.station.NOAA.NDBC:TCVF1:1,2016-10-08T10:00:00Z,25.2130,-80.5330,1.5,22.13,1111122 
ENP,ioos.station.NOAA.NDBC:TCVF1:1,2016-10-08T11:00:00Z,25.2130,-80.5330,1.5,21.16,1111122 
ENP,ioos.station.NOAA.NDBC:TCVF1:1,2016-10-08T12:00:00Z,25.2130,-80.5330,1.5,21.16,1111122 
ENP,ioos.station.NOAA.NDBC:TCVF1:1,2016-10-08T13:00:00Z,25.2130,-80.5330,1.5,21.23,1111122 
ENP,ioos.station.NOAA.NDBC:TCVF1:1,2016-10-08T14:00:00Z,25.2130,-80.5330,1.5,21.16,1111122 
ENP,ioos.station.NOAA.NDBC:TCVF1:1,2016-10-08T15:00:00Z,25.2130,-80.5330,1.5,21.16,1111122 
ENP,ioos.station.NOAA.NDBC:TCVF1:1,2016-10-08T16:00:00Z,25.2130,-80.5330,1.5,20.96,1111122 
ENP,ioos.station.NOAA.NDBC:TCVF1:1,2016-10-08T17:00:00Z,25.2130,-80.5330,1.5,19.99,1111122 
ENP,ioos.station.NOAA.NDBC:TCVF1:1,2016-10-08T18:00:00Z,25.2130,-80.5330,1.5,20.2,1111122 
ENP,ioos.station.NOAA.NDBC:TCVF1:1,2016-10-08T19:00:00Z,25.2130,-80.5330,1.5,20.2,1111122 
ENP,ioos.station.NOAA.NDBC:TCVF1:1,2016-10-08T20:00:00Z,25.2130,-80.5330,1.5,20.34,1111122 
ENP,ioos.station.NOAA.NDBC:TCVF1:1,2016-10-08T21:00:00Z,25.2130,-80.5330,1.5,20.54,1111122 
ENP,ioos.station.NOAA.NDBC:TCVF1:1,2016-10-08T22:00:00Z,25.2130,-80.5330,1.5,20.34,1111122 
ENP,ioos.station.NOAA.NDBC:TCVF1:1,2016-10-08T23:00:00Z,25.2130,-80.5330,1.5,22.69,1111122 
ENP,ioos.station.NOAA.NDBC:TCVF1:1,2016-10-09T00:00:00Z,25.2130,-80.5330,1.5,21.03,1111122 
ENP,ioos.station.NOAA.NDBC:TCVF1:1,2016-10-09T02:00:00Z,25.2130,-80.5330,1.5,15.46,1111122 
ENP,ioos.station.NOAA.NDBC:TCVF1:1,2016-10-09T03:00:00Z,25.2130,-80.5330,1.5,12.95,1111122 
ENP,ioos.station.NOAA.NDBC:TCVF1:1,2016-10-09T05:00:00Z,25.2130,-80.5330,1.5,11.58,1111122 
ENP,ioos.station.NOAA.NDBC:TCVF1:1,2016-10-09T06:00:00Z,25.2130,-80.5330,1.5,9.59,1111122 
ENP,ioos.station.NOAA.NDBC:TCVF1:1,2016-10-09T07:00:00Z,25.2130,-80.5330,1.5,8.64,1111122 
ENP,ioos.station.NOAA.NDBC:TCVF1:1,2016-10-09T08:00:00Z,25.2130,-80.5330,1.5,8.22,1111122 
ENP,ioos.station.NOAA.NDBC:TCVF1:1,2016-10-09T10:00:00Z,25.2130,-80.5330,1.5,8.45,1111122 
ENP,ioos.station.NOAA.NDBC:TCVF1:1,2016-10-09T11:00:00Z,25.2130,-80.5330,1.5,16.67,1111122 
ENP,ioos.station.NOAA.NDBC:TCVF1:1,2016-10-09T12:00:00Z,25.2130,-80.5330,1.5,22.06,1111122 
ENP,ioos.station.NOAA.NDBC:TCVF1:1,2016-10-09T13:00:00Z,25.2130,-80.5330,1.5,10.48,1111122 
ENP,ioos.station.NOAA.NDBC:TCVF1:1,2016-10-09T14:00:00Z,25.2130,-80.5330,1.5,8.7,1111122 
ENP,ioos.station.NOAA.NDBC:TCVF1:1,2016-10-09T15:00:00Z,25.2130,-80.5330,1.5,6.94,1111122 
ENP,ioos.station.NOAA.NDBC:TCVF1:1,2016-10-09T16:00:00Z,25.2130,-80.5330,1.5,6.48,1111122 
ENP,ioos.station.NOAA.NDBC:TCVF1:1,2016-10-09T17:00:00Z,25.2130,-80.5330,1.5,6.19,1111122 
ENP,ioos.station.NOAA.NDBC:TCVF1:1,2016-10-09T18:00:00Z,25.2130,-80.5330,1.5,5.64,1111122 
ENP,ioos.station.NOAA.NDBC:TCVF1:1,2016-10-09T19:00:00Z,25.2130,-80.5330,1.5,5.21,1111122 
ENP,ioos.station.NOAA.NDBC:TCVF1:1,2016-10-09T20:00:00Z,25.2130,-80.5330,1.5,4.69,1111122 
ENP,ioos.station.NOAA.NDBC:TCVF1:1,2016-10-09T21:00:00Z,25.2130,-80.5330,1.5,4.15,1111122 
ENP,ioos.station.NOAA.NDBC:TCVF1:1,2016-10-09T22:00:00Z,25.2130,-80.5330,1.5,3.82,1111122 
ENP,ioos.station.NOAA.NDBC:TCVF1:1,2016-10-09T23:00:00Z,25.2130,-80.5330,1.5,3.66,1111122 
ENP,ioos.station.NOAA.NDBC:TCVF1:1,2016-10-10T00:00:00Z,25.2130,-80.5330,1.5,3.57,1111122 
ENP,ioos.station.NOAA.NDBC:TCVF1:1,2016-10-10T02:00:00Z,25.2130,-80.5330,1.5,3.43,1111122 
ENP,ioos.station.NOAA.NDBC:TCVF1:1,2016-10-10T03:00:00Z,25.2130,-80.5330,1.5,3.4,1111122 
ENP,ioos.station.NOAA.NDBC:TCVF1:1,2016-10-10T05:00:00Z,25.2130,-80.5330,1.5,3.42,1111122 
ENP,ioos.station.NOAA.NDBC:TCVF1:1,2016-10-10T06:00:00Z,25.2130,-80.5330,1.5,3.44,1111122 
ENP,ioos.station.NOAA.NDBC:TCVF1:1,2016-10-10T07:00:00Z,25.2130,-80.5330,1.5,3.54,1111122 
ENP,ioos.station.NOAA.NDBC:TCVF1:1,2016-10-10T08:00:00Z,25.2130,-80.5330,1.5,3.5,1111122 
ENP,ioos.station.NOAA.NDBC:TCVF1:1,2016-10-10T10:00:00Z,25.2130,-80.5330,1.5,3.64,1111122 
ENP,ioos.station.NOAA.NDBC:TCVF1:1,2016-10-10T11:00:00Z,25.2130,-80.5330,1.5,3.67,1111122 
ENP,ioos.station.NOAA.NDBC:TCVF1:1,2016-10-10T12:00:00Z,25.2130,-80.5330,1.5,3.67,1111122 
ENP,ioos.station.NOAA.NDBC:TCVF1:1,2016-10-10T13:00:00Z,25.2130,-80.5330,1.5,3.65,1111122 
ENP,ioos.station.NOAA.NDBC:TCVF1:1,2016-10-10T14:00:00Z,25.2130,-80.5330,1.5,3.65,1111122 
ENP,ioos.station.NOAA.NDBC:TCVF1:1,2016-10-10T15:00:00Z,25.2130,-80.5330,1.5,3.66,1111122 
ENP,ioos.station.NOAA.NDBC:TCVF1:1,2016-10-10T16:00:00Z,25.2130,-80.5330,1.5,3.67,1111122 
ENP,ioos.station.NOAA.NDBC:TCVF1:1,2016-10-10T17:00:00Z,25.2130,-80.5330,1.5,3.69,1111122 
ENP,ioos.station.NOAA.NDBC:TCVF1:1,2016-10-10T18:00:00Z,25.2130,-80.5330,1.5,3.71,1111122 
ENP,ioos.station.NOAA.NDBC:TCVF1:1,2016-10-10T19:00:00Z,25.2130,-80.5330,1.5,3.72,1111122 
ENP,ioos.station.NOAA.NDBC:TCVF1:1,2016-10-10T20:00:00Z,25.2130,-80.5330,1.5,3.77,1111122 
ENP,ioos.station.NOAA.NDBC:TCVF1:1,2016-10-10T21:00:00Z,25.2130,-80.5330,1.5,3.79,1111122 
ENP,ioos.station.NOAA.NDBC:TCVF1:1,2016-10-10T22:00:00Z,25.2130,-80.5330,1.5,3.82,1111122 
ENP,ioos.station.NOAA.NDBC:TCVF1:1,2016-10-10T23:00:00Z,25.2130,-80.5330,1.5,3.84,1111122 
ENP,ioos.station.NOAA.NDBC:TCVF1:1,2016-10-11T00:00:00Z,25.2130,-80.5330,1.5,3.87,1111122 
ENP,ioos.station.NOAA.NDBC:TCVF1:1,2016-10-11T02:00:00Z,25.2130,-80.5330,1.5,3.9,1111122 
ENP,ioos.station.NOAA.NDBC:TCVF1:1,2016-10-11T03:00:00Z,25.2130,-80.5330,1.5,3.92,1111122 
ENP,ioos.station.NOAA.NDBC:TCVF1:1,2016-10-11T05:00:00Z,25.2130,-80.5330,1.5,3.98,1111122 
ENP,ioos.station.NOAA.NDBC:TCVF1:1,2016-10-11T06:00:00Z,25.2130,-80.5330,1.5,4.02,1111122 
ENP,ioos.station.NOAA.NDBC:TCVF1:1,2016-10-11T07:00:00Z,25.2130,-80.5330,1.5,4.07,1111122 
ENP,ioos.station.NOAA.NDBC:TCVF1:1,2016-10-11T08:00:00Z,25.2130,-80.5330,1.5,4.1,1111122 
ENP,ioos.station.NOAA.NDBC:TCVF1:1,2016-10-11T09:00:00Z,25.2130,-80.5330,1.5,4.14,1111122 
ENP,ioos.station.NOAA.NDBC:TCVF1:1,2016-10-11T10:00:00Z,25.2130,-80.5330,1.5,4.17,1111122 
ENP,ioos.station.NOAA.NDBC:TCVF1:1,2016-10-11T11:00:00Z,25.2130,-80.5330,1.5,4.21,1111122 
ENP,ioos.station.NOAA.NDBC:TCVF1:1,2016-10-11T12:00:00Z,25.2130,-80.5330,1.5,4.25,1111122 
ENP,ioos.station.NOAA.NDBC:TCVF1:1,2016-10-11T13:00:00Z,25.2130,-80.5330,1.5,4.29,1111122 
ENP,ioos.station.NOAA.NDBC:TCVF1:1,2016-10-11T14:00:00Z,25.2130,-80.5330,1.5,4.33,1111122 
ENP,ioos.station.NOAA.NDBC:TCVF1:1,2016-10-11T15:00:00Z,25.2130,-80.5330,1.5,4.37,1111122 
ENP,ioos.station.NOAA.NDBC:TCVF1:1,2016-10-11T16:00:00Z,25.2130,-80.5330,1.5,4.42,1111122 
ENP,ioos.station.NOAA.NDBC:TCVF1:1,2016-10-11T17:00:00Z,25.2130,-80.5330,1.5,4.46,1111122 
ENP,ioos.station.NOAA.NDBC:TCVF1:1,2016-10-11T18:00:00Z,25.2130,-80.5330,1.5,4.51,1111122 
ENP,ioos.station.NOAA.NDBC:TCVF1:1,2016-10-11T20:00:00Z,25.2130,-80.5330,1.5,4.6,1111122 
ENP,ioos.station.NOAA.NDBC:TCVF1:1,2016-10-11T21:00:00Z,25.2130,-80.5330,1.5,4.63,1111122 
ENP,ioos.station.NOAA.NDBC:TCVF1:1,2016-10-11T22:00:00Z,25.2130,-80.5330,1.5,4.68,1111122 
ENP,ioos.station.NOAA.NDBC:TCVF1:1,2016-10-11T23:00:00Z,25.2130,-80.5330,1.5,4.73,1111122 
ENP,ioos.station.NOAA.NDBC:TCVF1:1,2016-10-12T00:00:00Z,25.2130,-80.5330,1.5,4.77,1111122 
ENP,ioos.station.NOAA.NDBC:TCVF1:1,2016-10-12T03:00:00Z,25.2130,-80.5330,1.5,4.82,1111122 
ENP,ioos.station.NOAA.NDBC:TCVF1:1,2016-10-12T06:00:00Z,25.2130,-80.5330,1.5,4.9,1111122 
ENP,ioos.station.NOAA.NDBC:TCVF1:1,2016-10-12T07:00:00Z,25.2130,-80.5330,1.5,4.92,1111122 
ENP,ioos.station.NOAA.NDBC:TCVF1:1,2016-10-12T08:00:00Z,25.2130,-80.5330,1.5,4.94,1111122 
ENP,ioos.station.NOAA.NDBC:TCVF1:1,2016-10-12T10:00:00Z,25.2130,-80.5330,1.5,4.97,1111122 
ENP,ioos.station.NOAA.NDBC:TCVF1:1,2016-10-12T11:00:00Z,25.2130,-80.5330,1.5,4.98,1111122 
ENP,ioos.station.NOAA.NDBC:TCVF1:1,2016-10-12T12:00:00Z,25.2130,-80.5330,1.5,4.99,1111122 
ENP,ioos.station.NOAA.NDBC:TCVF1:1,2016-10-12T13:00:00Z,25.2130,-80.5330,1.5,4.99,1111122 
ENP,ioos.station.NOAA.NDBC:TCVF1:1,2016-10-12T14:00:00Z,25.2130,-80.5330,1.5,5.0,1111122 
ENP,ioos.station.NOAA.NDBC:TCVF1:1,2016-10-12T15:00:00Z,25.2130,-80.5330,1.5,5.05,1111122 
ENP,ioos.station.NOAA.NDBC:TCVF1:1,2016-10-12T16:00:00Z,25.2130,-80.5330,1.5,6.64,1111122 
ENP,ioos.station.NOAA.NDBC:TCVF1:1,2016-10-12T17:00:00Z,25.2130,-80.5330,1.5,7.44,1111122 
ENP,ioos.station.NOAA.NDBC:TCVF1:1,2016-10-12T18:00:00Z,25.2130,-80.5330,1.5,7.3,1111122 
ENP,ioos.station.NOAA.NDBC:TCVF1:1,2016-10-12T19:00:00Z,25.2130,-80.5330,1.5,6.95,1111122 
ENP,ioos.station.NOAA.NDBC:TCVF1:1,2016-10-12T20:00:00Z,25.2130,-80.5330,1.5,6.59,1111122 
ENP,ioos.station.NOAA.NDBC:TCVF1:1,2016-10-12T21:00:00Z,25.2130,-80.5330,1.5,6.07,1111122 
ENP,ioos.station.NOAA.NDBC:TCVF1:1,2016-10-12T22:00:00Z,25.2130,-80.5330,1.5,5.8,1111122 
ENP,ioos.station.NOAA.NDBC:TCVF1:1,2016-10-12T23:00:00Z,25.2130,-80.5330,1.5,5.64,1111122 
ENP,ioos.station.NOAA.NDBC:TCVF1:1,2016-10-13T00:00:00Z,25.2130,-80.5330,1.5,5.38,1111122 
ENP,ioos.station.NOAA.NDBC:TCVF1:1,2016-10-13T03:00:00Z,25.2130,-80.5330,1.5,8.64,1111122 
ENP,ioos.station.NOAA.NDBC:TCVF1:1,2016-10-13T06:00:00Z,25.2130,-80.5330,1.5,10.23,1111122 
ENP,ioos.station.NOAA.NDBC:TCVF1:1,2016-10-13T07:00:00Z,25.2130,-80.5330,1.5,8.7,1111122 
ENP,ioos.station.NOAA.NDBC:TCVF1:1,2016-10-13T08:00:00Z,25.2130,-80.5330,1.5,9.34,1111122 
ENP,ioos.station.NOAA.NDBC:TCVF1:1,2016-10-13T10:00:00Z,25.2130,-80.5330,1.5,10.23,1111122 
ENP,ioos.station.NOAA.NDBC:TCVF1:1,2016-10-13T11:00:00Z,25.2130,-80.5330,1.5,10.61,1111122 
ENP,ioos.station.NOAA.NDBC:TCVF1:1,2016-10-13T12:00:00Z,25.2130,-80.5330,1.5,8.58,1111122 
ENP,ioos.station.NOAA.NDBC:TCVF1:1,2016-10-13T13:00:00Z,25.2130,-80.5330,1.5,11.19,1111122 
ENP,ioos.station.NOAA.NDBC:TCVF1:1,2016-10-13T14:00:00Z,25.2130,-80.5330,1.5,14.46,1111122 
ENP,ioos.station.NOAA.NDBC:TCVF1:1,2016-10-13T15:00:00Z,25.2130,-80.5330,1.5,19.11,1111122 
ENP,ioos.station.NOAA.NDBC:TCVF1:1,2016-10-13T16:00:00Z,25.2130,-80.5330,1.5,21.37,1111122 
ENP,ioos.station.NOAA.NDBC:TCVF1:1,2016-10-13T17:00:00Z,25.2130,-80.5330,1.5,21.65,1111122 
ENP,ioos.station.NOAA.NDBC:TCVF1:1,2016-10-13T18:00:00Z,25.2130,-80.5330,1.5,12.95,1111122 